Weather History for Marathon, FL

Change the Weather History Date:

Thursday, November 17, 2011

  Actual Average Record
Temperature  
Mean Temperature 81 °F 76 °F  
Max Temperature 85 °F 80 °F 85 °F (2011)
Min Temperature 76 °F 71 °F 60 °F (2008)
Degree Days  
Heating Degree Days 0 0  
Month to date heating degree days 0 0  
Since 1 July heating degree days 0 0  
Cooling Degree Days 16 11  
Month to date cooling degree days 194 198  
Year to date cooling degree days 4973 4637  
Growing Degree Days 30 (Base 50)    
Moisture  
Dew Point 75 °F    
Average Humidity 87    
Maximum Humidity 100    
Minimum Humidity 74    
Precipitation  
Precipitation 0.21 in 0.10 in 0.53 in (1998)
Month to date precipitation 0.29 1.88  
Year to date precipitation 35.80 43.21  
Snow  
Snow 0.00 in - - ()
Month to date snowfall 0.0  
Since 1 July snowfall 0.0  
Since 1 September snowfall 0.0  
Snow Depth 0.00 in    
Sea Level Pressure  
Sea Level Pressure 30.01 in    
Wind  
Wind Speed 4 mph (ESE)    
Max Wind Speed 8 mph    
Max Gust Speed 12 mph    
Visibility 9 miles    
Events Rain    
T = Trace of Precipitation, MM = Missing Value Source: NWS Daily Summary

Daily Weather History Graph

Daily Weather History Graph

Search for Another Location

Airport:

Trip Planner

Search our weather history database for the weather conditions in past years. The results will help you decide how hot, cold, wet, or windy it might be!

Date:

Astronomy

Nov. 17, 2011 Rise Set
Actual Time 6:41 AM EST 5:36 PM EST
Civil Twilight 6:17 AM EST 6:00 PM EST
Nautical Twilight 5:49 AM EST 6:28 PM EST
Astronomical Twilight 5:22 AM EST 6:55 PM EST
Moon 11:41 PM EST (11/17) 11:59 AM EST (11/17)
Length of Visible Light 11h 43m
Length of Day
10h 54m
Waning Gibbous, 60% of the Moon is Illuminated
Nov 17
Waning Gibbous
Nov 18
Last Quarter
Nov 25
New
Dec 2
First Quarter
Dec 10
Full

Hourly Weather History & Observations

Time (EST) Temp. Heat Index Dew Point Humidity Pressure Visibility Wind Dir Wind Speed Gust Speed Precip Events Conditions
12:53 AM 77.0 °F - 75.0 °F 94% 30.00 in 10.0 mi East 3.5 mph - N/A   Clear
1:53 AM 77.0 °F - 75.9 °F 96% 29.99 in 9.0 mi ENE 3.5 mph - N/A   Partly Cloudy
3:53 AM 77.0 °F - 75.9 °F 96% 29.99 in 10.0 mi Calm Calm - N/A   Scattered Clouds
4:23 AM 77.0 °F - 75.2 °F 94% 29.99 in 10.0 mi Calm Calm - N/A   Mostly Cloudy
4:53 AM 77.0 °F - 75.0 °F 94% 29.99 in 10.0 mi Calm Calm - N/A   Overcast
5:46 AM 77.0 °F - 75.2 °F 94% 30.01 in 2.5 mi SE 5.8 mph - 0.09 in Rain Light Rain
5:51 AM 77.0 °F - 77.0 °F 100% 30.01 in 1.2 mi ESE 5.8 mph - 0.20 in Rain Heavy Rain
5:53 AM 77.0 °F - 77.0 °F 100% 30.01 in 1.2 mi SE 5.8 mph - 0.20 in Rain Heavy Rain
5:59 AM 77.0 °F - 75.2 °F 94% 30.01 in 3.0 mi SE 4.6 mph - 0.01 in Rain Light Rain
6:15 AM 77.0 °F - 75.2 °F 94% 30.01 in 10.0 mi SE 4.6 mph - 0.01 in   Overcast
6:53 AM 78.1 °F - 75.9 °F 93% 30.03 in 8.0 mi SSE 4.6 mph - 0.01 in   Clear
7:53 AM 79.0 °F - 77.0 °F 94% 30.04 in 9.0 mi SSE 5.8 mph - N/A   Clear
8:53 AM 81.0 °F 87.9 °F 77.0 °F 88% 30.06 in 10.0 mi South 4.6 mph - N/A   Clear
10:53 AM 82.9 °F 90.8 °F 75.9 °F 79% 30.06 in 10.0 mi SE 4.6 mph - N/A   Partly Cloudy
11:53 AM 84.0 °F 92.6 °F 75.9 °F 76% 30.04 in 10.0 mi SE 4.6 mph - N/A   Clear
12:53 PM 84.0 °F 91.9 °F 75.0 °F 74% 30.00 in 10.0 mi Variable 5.8 mph - N/A   Clear
1:53 PM 84.0 °F 91.9 °F 75.0 °F 74% 29.97 in 10.0 mi SE 4.6 mph - N/A   Clear
2:53 PM 82.9 °F 89.4 °F 73.9 °F 74% 29.96 in 10.0 mi SSE 3.5 mph - N/A   Clear
3:53 PM 82.0 °F 87.4 °F 73.0 °F 74% 29.96 in 10.0 mi SSE 5.8 mph - N/A   Clear
4:53 PM 82.0 °F 87.9 °F 73.9 °F 76% 29.96 in 10.0 mi Variable 3.5 mph - N/A   Mostly Cloudy
5:53 PM 80.1 °F 84.5 °F 73.9 °F 81% 29.98 in 10.0 mi Calm Calm - N/A   Clear
6:53 PM 79.0 °F - 73.9 °F 84% 30.00 in 10.0 mi Calm Calm - N/A   Clear
7:36 PM 78.8 °F - 73.4 °F 83% 30.01 in 10.0 mi Calm Calm - N/A   Overcast
7:53 PM 79.0 °F - 73.9 °F 84% 30.02 in 10.0 mi Calm Calm - N/A   Mostly Cloudy
8:13 PM 78.8 °F - 75.2 °F 89% 30.02 in 10.0 mi North 3.5 mph - N/A   Mostly Cloudy
8:49 PM 78.8 °F - 75.2 °F 89% 30.03 in 10.0 mi North 4.6 mph - N/A   Mostly Cloudy
8:53 PM 78.1 °F - 75.9 °F 93% 30.03 in 10.0 mi North 3.5 mph - N/A   Mostly Cloudy
9:30 PM 78.8 °F - 75.2 °F 89% 30.05 in 10.0 mi North 6.9 mph - N/A   Overcast
9:37 PM 78.8 °F - 75.2 °F 89% 30.05 in 10.0 mi North 5.8 mph - N/A   Mostly Cloudy
9:53 PM 78.1 °F - 75.0 °F 90% 30.05 in 10.0 mi North 4.6 mph - N/A   Scattered Clouds
10:25 PM 78.8 °F - 75.2 °F 89% 30.05 in 10.0 mi North 5.8 mph - N/A   Mostly Cloudy